Weather History for KCIC - March, 2013

Change the Weather History Date:

Thursday, March 28, 2013

  Actual Average (KOVE) Record (KOVE)
Temperature  
Mean Temperature 60 °F -  
Max Temperature 66 °F 68 °F 88 °F (1955)
Min Temperature 53 °F 43 °F 32 °F (1985)
Degree Days  
Heating Degree Days 6    
Growing Degree Days 10 (Base 50)    
Moisture  
Dew Point 48 °F    
Average Humidity 73    
Maximum Humidity 100    
Minimum Humidity 45    
Precipitation  
Precipitation 0.00 in - - ()
Sea Level Pressure  
Sea Level Pressure 30.05 in    
Wind  
Wind Speed 11 mph (SE)    
Max Wind Speed 18 mph    
Max Gust Speed 17 mph    
Visibility 10 miles    
Events      
Averages and records for this station are not official NWS values.
T = Trace of Precipitation, MM = Missing Value Source: NWS Daily Summary

Daily Weather History Graph

Daily Weather History Graph

Search for Another Location

Airport or City:

Trip Planner

Search our weather history database for the weather conditions in past years. The results will help you decide how hot, cold, wet, or windy it might be!

Date:

Astronomy

Mar. 28, 2013 Rise Set
Actual Time 6:57 AM PDT 7:27 PM PDT
Civil Twilight 6:30 AM PDT 7:55 PM PDT
Nautical Twilight 5:58 AM PDT 8:27 PM PDT
Astronomical Twilight 5:25 AM PDT 8:59 PM PDT
Moon 9:25 PM PDT (3/28) 7:29 AM PDT (3/28)
Length of Visible Light 13h 24m
Length of Day
12h 30m
Full, 98% of the Moon is Illuminated
Mar 28
Full
Apr 2
Last Quarter
Apr 10
New
Apr 18
First Quarter
Apr 25
Full

Hourly Weather History & Observations

Time (PDT) Temp. Dew Point Humidity Pressure Visibility Wind Dir Wind Speed Gust Speed Precip Events Conditions
12:15 AM 60.8 °F 46.4 °F 59% 29.98 in 10.0 mi SE 13.8 mph - N/A   Overcast
12:35 AM 60.8 °F 46.4 °F 59% 29.99 in 10.0 mi SE 15.0 mph - N/A   Overcast
12:55 AM 59.0 °F 46.4 °F 63% 29.99 in 10.0 mi SSE 15.0 mph - N/A   Overcast
1:15 AM 59.0 °F 46.4 °F 63% 29.99 in 10.0 mi SSE 11.5 mph - N/A   Overcast
1:35 AM 59.0 °F 46.4 °F 63% 29.99 in 10.0 mi SE 10.4 mph - N/A   Overcast
1:55 AM 59.0 °F 46.4 °F 63% 29.99 in 10.0 mi SSE 11.5 mph - N/A   Overcast
2:15 AM 59.0 °F 46.4 °F 63% 29.99 in 10.0 mi SSE 11.5 mph - N/A   Overcast
2:35 AM 59.0 °F 46.4 °F 63% 29.99 in 10.0 mi SE 12.7 mph - N/A   Overcast
2:55 AM 59.0 °F 46.4 °F 63% 29.99 in 10.0 mi SSE 11.5 mph 16.1 mph N/A   Overcast
3:15 AM 59.0 °F 46.4 °F 63% 30.00 in 10.0 mi SSE 11.5 mph - N/A   Overcast
3:35 AM 59.0 °F 48.2 °F 67% 30.00 in 10.0 mi South 11.5 mph - N/A   Overcast
3:55 AM 57.2 °F 48.2 °F 72% 30.00 in 10.0 mi SSE 10.4 mph - N/A   Overcast
4:15 AM 57.2 °F 48.2 °F 72% 30.00 in 10.0 mi SSE 11.5 mph - N/A   Overcast
4:35 AM 57.2 °F 48.2 °F 72% 30.00 in 10.0 mi SSE 9.2 mph - N/A   Overcast
4:55 AM 57.2 °F 48.2 °F 72% 30.00 in 10.0 mi South 8.1 mph - N/A   Overcast
5:15 AM 57.2 °F 50.0 °F 77% 30.01 in 10.0 mi SSE 13.8 mph - N/A   Overcast
5:35 AM 57.2 °F 48.2 °F 72% 30.01 in 10.0 mi SSE 15.0 mph - N/A   Overcast
5:55 AM 55.4 °F 48.2 °F 77% 30.01 in 10.0 mi SSE 13.8 mph - N/A   Overcast
6:15 AM 55.4 °F 48.2 °F 77% 30.01 in 10.0 mi SSE 15.0 mph - N/A   Overcast
6:35 AM 55.4 °F 46.4 °F 72% 30.02 in 10.0 mi SSE 16.1 mph - N/A   Overcast
6:53 AM 55.4 °F 46.4 °F 72% 30.02 in 40.0 mi SE 11.5 mph - N/A   Overcast
6:55 AM 55.4 °F 46.4 °F 72% 30.02 in 10.0 mi SSE 15.0 mph - N/A   Overcast
7:15 AM 55.4 °F 46.4 °F 72% 30.03 in 10.0 mi SSE 12.7 mph - N/A   Overcast
7:35 AM 55.4 °F 46.4 °F 72% 30.04 in 10.0 mi SSE 11.5 mph - N/A   Overcast
7:58 AM 55.4 °F 46.4 °F 72% 30.02 in 40.0 mi SE 11.5 mph - N/A   Overcast
8:55 AM 57.2 °F 46.4 °F 67% 30.06 in 40.0 mi SE 13.8 mph - N/A   Mostly Cloudy
9:56 AM 59.0 °F 44.6 °F 59% 30.08 in 40.0 mi SE 18.4 mph - N/A   Mostly Cloudy
11:50 AM 62.6 °F 42.8 °F 48% 30.10 in 40.0 mi East 17.3 mph - N/A   Mostly Cloudy
12:58 PM 64.4 °F 42.8 °F 45% 30.09 in 40.0 mi SE 9.2 mph - N/A   Mostly Cloudy
1:48 PM 64.4 °F 42.8 °F 45% 30.09 in 40.0 mi SSE 11.5 mph - N/A   Overcast
3:49 PM 66.2 °F 44.6 °F 46% 30.07 in 25.0 mi SSE 11.5 mph 17.3 mph N/A   Mostly Cloudy
4:56 PM 64.4 °F 46.4 °F 52% 30.07 in 25.0 mi SSE 12.7 mph - N/A   Mostly Cloudy
5:55 PM 64.4 °F 48.2 °F 56% 30.08 in 25.0 mi SSE 11.5 mph - N/A   Overcast
7:55 PM 57.2 °F 53.6 °F 88% 30.09 in 10.0 mi NNW 4.6 mph - N/A   Overcast
8:15 PM 57.2 °F 53.6 °F 88% 30.10 in 10.0 mi NNW 3.5 mph - N/A   Overcast
8:35 PM 57.2 °F 55.4 °F 94% 30.10 in 10.0 mi NNW 4.6 mph - N/A   Overcast
8:55 PM 55.4 °F 55.4 °F 100% 30.11 in 10.0 mi NW 4.6 mph - N/A   Mostly Cloudy
9:15 PM 55.4 °F 55.4 °F 100% 30.11 in 10.0 mi NNW 4.6 mph - N/A   Scattered Clouds
9:35 PM 55.4 °F 55.4 °F 100% 30.12 in 10.0 mi Calm Calm - N/A   Partly Cloudy
9:55 PM 55.4 °F 55.4 °F 100% 30.12 in 10.0 mi Calm Calm - N/A   Mostly Cloudy
10:15 PM 55.4 °F 53.6 °F 94% 30.13 in 10.0 mi NE 3.5 mph - N/A   Mostly Cloudy
10:35 PM 53.6 °F 51.8 °F 94% 30.13 in 10.0 mi NE 5.8 mph - N/A   Mostly Cloudy
10:55 PM 53.6 °F 50.0 °F 88% 30.12 in 10.0 mi NE 5.8 mph - N/A   Partly Cloudy
11:15 PM 53.6 °F 50.0 °F 88% 30.12 in 10.0 mi NNE 5.8 mph - N/A   Clear
11:35 PM 53.6 °F 50.0 °F 88% 30.12 in 10.0 mi NE 5.8 mph - N/A   Clear
11:55 PM 53.6 °F 50.0 °F 88% 30.12 in 10.0 mi NE 5.8 mph - N/A   Clear